星链-34331 (STARLINK-34331)

导读

STARLINK-34331是美国SpaceX星链星座的一员,于2025年6月5日发射升空。星链计划旨在搭建全球卫星互联网星座,为全球偏远地区、海洋、空中等场景提供高速低延迟的宽带网络服务,该卫星延续星链标准设计,承担组网通信任务,进一步扩充了星链星座的全球覆盖能力与服务容量。

基本信息
目录编号:
64204
目录名称:
STARLINK-34331
国际标识:
2025-117B
轨道中心:
EARTH
卫星名称:
星链-34331
卫星全名:
星链-34331 (STARLINK-34331)
卫星状态:
在轨 (已飞行461 天)
发射日期:
2025-05-31 UTC
国别 :
美国 (US)
星等 :
--
轨道信息
数据来源 国际轨道数据
星历时间: 2026-09-03T11:29:09+0800
1天前
查看轨道信息
半长轴: 6840.872km
偏心率: 0.000148
轨道倾角: 53.159°
近地点辐角 92.994°
升交点赤经 292.597°
平近点角 267.123°
近地点: 461.722km
远地点: 463.748km
周期: 93.848分钟
每日圈数: 15.343896
详细信息
固有亮度:
5
最大亮度:
2.5
卫星平台:
Starlink V1.0
覆盖范围:
全球
运营商:
太空探索技术公司
运营商所在国:
美国
制造商(研发单位):
太空探索技术公司
制造商所在国:
美国
使用方式:
暂无
卫星简介
Starlink 计划是 SpaceX 推出的全球卫星互联网项目,通过发射低轨道卫星,为全球尤其是偏远地区提供高速、低延迟的互联网服务。自 2019 年起,Starlink 已部署数千颗卫星,旨在缩小全球数字鸿沟,推动互联网普及。该项目还为军事、航空等行业提供通信支持,带来广泛经济效益。
2D轨道图
3D轨道图
轨道高度分析图
轨道倾角分析图
轨道综合分析图
查看轨道综合分析图